Location: ??
(34.9170°N, 135.5016°E)
Time: 12:35:26
(UTC+00:00)

BREEZE-M DEB (TANK) - Pass Details

Date: 29 October 2020
Orbit: 305 x 13931 km, 46.1° (Epoch: 26 November)

Event Time Altitude Azimuth Distance (km) Brightness Sun altitude
Exits shadow 20:26:28 19° 273° (W) 906 2.8 -10.9°
Maximum altitude 20:27:41 30° 221° (SW) 588 2.2 -10.7°
Drops below altitude 10° 20:29:40 10° 154° (SSE) 1,199 4.6 -10.3°
Sets 20:31:46 0° 142° (SE) 2,249 6.3 -9.9°
